Back to catalog

SL-14 R/B

AlivePO
NORAD 15517·ROCKET BODY·🇷🇺 Russia

Launched Feb 6, 1985 from Plesetsk Cosmodrome

Loading…

Next Passes (next 24 hours)

TLE

FreshSource: Space-Track

Epoch: Sep 14, 2026, 06:42 UTC

1 15517U 85013B   26257.27977896  .00000021  00000-0  57373-5 0  9996
2 15517  82.5317 272.6417 0016023  70.5683 289.7207 13.85006307102334

Track SL-14 R/B in real time with AllMySat

Download on the App Store